| time (UTC) | temp F | wind direction | speed MPH | gust MPH | rain 1hr in | rain 24hr in | rain mn in | humidity % | barometer mb |
| 20260508013033 | 60 | 0 | 3.0 | 0.0 | 0.00 | 0.00 | 0.00 | 59 | 1018.0 |
| 20260508011532 | 60 | 0 | 3.0 | 0.0 | 0.00 | 0.00 | 0.00 | 59 | 1019.0 |
| 20260508010032 | 61 | 236 | 4.0 | 5.0 | 0.00 | 0.00 | 0.00 | 57 | 1019.0 |
| 20260508004532 | 62 | 180 | 3.0 | 0.0 | 0.00 | 0.00 | 0.00 | 56 | 1019.0 |
| 20260508003031 | 62 | 180 | 3.0 | 0.0 | 0.00 | 0.00 | 0.00 | 56 | 1019.0 |
| 20260508001531 | 62 | 180 | 3.0 | 0.0 | 0.00 | 0.00 | 0.00 | 56 | 1019.0 |
| 20260508000031 | 62 | 360 | 1.0 | 5.0 | 0.00 | 0.00 | 0.00 | 57 | 1019.0 |
| 20260507234531 | 62 | 360 | 1.0 | 5.0 | 0.00 | 0.00 | 0.00 | 58 | 1019.0 |
| 20260507233030 | 62 | 360 | 1.0 | 5.0 | 0.00 | 0.00 | 0.00 | 58 | 1019.0 |
| 20260507231530 | 61 | 360 | 2.0 | 5.0 | 0.00 | 0.00 | 0.00 | 57 | 1019.0 |
| 20260507230030 | 62 | 360 | 1.0 | 5.0 | 0.00 | 0.00 | 0.00 | 56 | 1019.0 |
| 20260507224530 | 62 | 360 | 2.0 | 5.0 | 0.00 | 0.00 | 0.00 | 56 | 1019.0 |
| 20260507223029 | 62 | 360 | 1.0 | 4.0 | 0.00 | 0.00 | 0.00 | 56 | 1019.0 |
| 20260507221529 | 62 | 360 | 1.0 | 2.0 | 0.00 | 0.00 | 0.00 | 55 | 1019.0 |
| 20260507220029 | 62 | 360 | 1.0 | 5.0 | 0.00 | 0.00 | 0.00 | 55 | 1019.0 |
| 20260507214529 | 63 | 0 | 3.0 | 0.0 | 0.00 | 0.00 | 0.00 | 54 | 1019.0 |
| 20260507213028 | 64 | 0 | 3.0 | 0.0 | 0.00 | 0.00 | 0.00 | 53 | 1019.0 |
| 20260507211528 | 64 | 0 | 3.0 | 0.0 | 0.00 | 0.00 | 0.00 | 52 | 1019.0 |
| 20260507210028 | 64 | 0 | 3.0 | 0.0 | 0.00 | 0.00 | 0.00 | 52 | 1019.0 |
| 20260507204528 | 64 | 0 | 3.0 | 0.0 | 0.00 | 0.00 | 0.00 | 52 | 1019.0 |
| 20260507203028 | 65 | 0 | 3.0 | 0.0 | 0.00 | 0.00 | 0.00 | 49 | 1019.0 |
| 20260507201527 | 66 | 0 | 3.0 | 0.0 | 0.00 | 0.00 | 0.00 | 49 | 1019.0 |
| 20260507200027 | 68 | 0 | 3.0 | 0.0 | 0.00 | 0.00 | 0.00 | 46 | 1019.0 |
| 20260507194527 | 69 | 0 | 3.0 | 0.0 | 0.00 | 0.00 | 0.00 | 42 | 1019.0 |
| 20260507193027 | 71 | 0 | 3.0 | 0.0 | 0.00 | 0.00 | 0.00 | 37 | 1019.0 |
| 20260507191526 | 71 | 0 | 3.0 | 0.0 | 0.00 | 0.00 | 0.00 | 37 | 1019.0 |
| 20260507190026 | 71 | 0 | 3.0 | 0.0 | 0.00 | 0.00 | 0.00 | 40 | 1019.0 |
| 20260507184526 | 69 | 0 | 3.0 | 0.0 | 0.00 | 0.00 | 0.00 | 44 | 1019.0 |
| 20260507183025 | 70 | 240 | 5.0 | 0.0 | 0.00 | 0.00 | 0.00 | 38 | 1019.0 |
| 20260507181525 | 70 | 240 | 5.0 | 0.0 | 0.00 | 0.00 | 0.00 | 41 | 1019.0 |
| 20260507180025 | 69 | 250 | 6.0 | 0.0 | 0.00 | 0.00 | 0.00 | 54 | 1018.0 |
| 20260507174525 | 72 | 250 | 6.0 | 0.0 | 0.00 | 0.00 | 0.00 | 40 | 1018.0 |
| 20260507173024 | 72 | 230 | 8.0 | 0.0 | 0.00 | 0.00 | 0.00 | 40 | 1018.0 |
| 20260507171524 | 74 | 230 | 10.0 | 0.0 | 0.00 | 0.00 | 0.00 | 38 | 1018.0 |
| 20260507170024 | 74 | 230 | 10.0 | 0.0 | 0.00 | 0.00 | 0.00 | 38 | 1018.0 |
| 20260507164524 | 74 | 230 | 10.0 | 0.0 | 0.00 | 0.00 | 0.00 | 38 | 1018.0 |
| 20260507163024 | 74 | 230 | 10.0 | 0.0 | 0.00 | 0.00 | 0.00 | 38 | 1018.0 |
| 20260507161523 | 74 | 230 | 10.0 | 0.0 | 0.00 | 0.00 | 0.00 | 38 | 1018.0 |
| 20260507160023 | 74 | 230 | 9.0 | 0.0 | 0.00 | 0.00 | 0.00 | 35 | 1018.0 |
| 20260507154523 | 74 | 230 | 9.0 | 0.0 | 0.00 | 0.00 | 0.00 | 35 | 1018.0 |
| 20260507153022 | 76 | 230 | 9.0 | 0.0 | 0.00 | 0.00 | 0.00 | 33 | 1018.0 |
| 20260507151522 | 76 | 230 | 9.0 | 0.0 | 0.00 | 0.00 | 0.00 | 33 | 1018.0 |
| 20260507150022 | 76 | 230 | 10.0 | 0.0 | 0.00 | 0.00 | 0.00 | 33 | 1018.0 |
| 20260507144522 | 76 | 230 | 10.0 | 0.0 | 0.00 | 0.00 | 0.00 | 33 | 1018.0 |
| 20260507143022 | 76 | 230 | 11.0 | 0.0 | 0.00 | 0.00 | 0.00 | 33 | 1018.0 |
| 20260507141521 | 76 | 230 | 11.0 | 0.0 | 0.00 | 0.00 | 0.00 | 33 | 1019.0 |
| 20260507140021 | 76 | 210 | 12.0 | 0.0 | 0.00 | 0.00 | 0.00 | 31 | 1019.0 |
| 20260507134520 | 76 | 210 | 12.0 | 0.0 | 0.00 | 0.00 | 0.00 | 31 | 1019.0 |
| 20260507133020 | 78 | 210 | 8.0 | 0.0 | 0.00 | 0.00 | 0.00 | 29 | 1019.0 |
| 20260507131520 | 78 | 210 | 8.0 | 0.0 | 0.00 | 0.00 | 0.00 | 29 | 1019.0 |
| 20260507130019 | 78 | 200 | 6.0 | 0.0 | 0.00 | 0.00 | 0.00 | 29 | 1019.0 |
| 20260507124519 | 78 | 200 | 6.0 | 0.0 | 0.00 | 0.00 | 0.00 | 29 | 1019.0 |
| 20260507123021 | 80 | 160 | 9.0 | 0.0 | 0.00 | 0.00 | 0.00 | 28 | 1019.0 |
| 20260507121519 | 80 | 160 | 9.0 | 0.0 | 0.00 | 0.00 | 0.00 | 28 | 1019.0 |
| 20260507120018 | 78 | 130 | 6.0 | 0.0 | 0.00 | 0.00 | 0.00 | 27 | 1019.0 |
| 20260507114518 | 78 | 130 | 6.0 | 0.0 | 0.00 | 0.00 | 0.00 | 27 | 1019.0 |
| 20260507113018 | 76 | 140 | 9.0 | 0.0 | 0.00 | 0.00 | 0.00 | 31 | 1019.0 |
| 20260507111517 | 76 | 140 | 9.0 | 0.0 | 0.00 | 0.00 | 0.00 | 31 | 1019.0 |
| 20260507110017 | 76 | 140 | 6.0 | 0.0 | 0.00 | 0.00 | 0.00 | 33 | 1019.0 |
| 20260507104517 | 72 | 140 | 6.0 | 0.0 | 0.00 | 0.00 | 0.00 | 46 | 1019.0 |
| 20260507103017 | 71 | 120 | 9.0 | 0.0 | 0.00 | 0.00 | 0.00 | 47 | 1019.0 |
| 20260507101517 | 71 | 120 | 9.0 | 0.0 | 0.00 | 0.00 | 0.00 | 51 | 1019.0 |
| 20260507100016 | 70 | 130 | 10.0 | 0.0 | 0.00 | 0.00 | 0.00 | 49 | 1019.0 |
| 20260507094516 | 72 | 130 | 10.0 | 0.0 | 0.00 | 0.00 | 0.00 | 45 | 1019.0 |
| 20260507093016 | 72 | 130 | 11.0 | 0.0 | 0.00 | 0.00 | 0.00 | 47 | 1019.0 |
| 20260507091515 | 71 | 130 | 11.0 | 0.0 | 0.00 | 0.00 | 0.00 | 48 | 1020.0 |
| 20260507090015 | 70 | 130 | 9.0 | 0.0 | 0.00 | 0.00 | 0.00 | 48 | 1019.0 |
| 20260507084515 | 71 | 130 | 9.0 | 0.0 | 0.00 | 0.00 | 0.00 | 48 | 1019.0 |
| 20260507083015 | 70 | 130 | 9.0 | 0.0 | 0.00 | 0.00 | 0.00 | 47 | 1019.0 |
| 20260507081514 | 69 | 130 | 9.0 | 0.0 | 0.00 | 0.00 | 0.00 | 51 | 1020.0 |
| 20260507080014 | 68 | 140 | 8.0 | 0.0 | 0.00 | 0.00 | 0.00 | 53 | 1019.0 |
| 20260507074514 | 67 | 140 | 8.0 | 0.0 | 0.00 | 0.00 | 0.00 | 55 | 1019.0 |
| 20260507073014 | 68 | 140 | 9.0 | 0.0 | 0.00 | 0.00 | 0.00 | 51 | 1019.0 |
| 20260507071513 | 69 | 140 | 9.0 | 0.0 | 0.00 | 0.00 | 0.00 | 53 | 1019.0 |
| 20260507070014 | 68 | 140 | 9.0 | 0.0 | 0.00 | 0.00 | 0.00 | 53 | 1019.0 |
| 20260507064513 | 67 | 140 | 9.0 | 0.0 | 0.00 | 0.00 | 0.00 | 52 | 1019.0 |
| 20260507063012 | 67 | 120 | 5.0 | 0.0 | 0.00 | 0.00 | 0.00 | 60 | 1019.0 |
| 20260507061512 | 66 | 120 | 5.0 | 0.0 | 0.00 | 0.00 | 0.00 | 64 | 1020.0 |
| 20260507060012 | 65 | 0 | 2.0 | 0.0 | 0.00 | 0.00 | 0.00 | 69 | 1019.0 |
| 20260507054512 | 64 | 0 | 2.0 | 0.0 | 0.00 | 0.00 | 0.00 | 69 | 1019.0 |
| 20260507053011 | 63 | 38 | 1.0 | 1.0 | 0.00 | 0.00 | 0.00 | 72 | 1019.0 |
| 20260507051511 | 61 | 0 | 0.0 | 0.0 | 0.00 | 0.00 | 0.00 | 74 | 1019.0 |
| 20260507050011 | 60 | 0 | 0.0 | 0.0 | 0.00 | 0.00 | 0.00 | 76 | 1018.0 |
| 20260507044511 | 58 | 58 | 1.0 | 1.0 | 0.00 | 0.00 | 0.00 | 77 | 1018.0 |
| 20260507043010 | 57 | 0 | 3.0 | 0.0 | 0.00 | 0.00 | 0.00 | 78 | 1018.0 |
| 20260507041510 | 56 | 0 | 3.0 | 0.0 | 0.00 | 0.00 | 0.00 | 78 | 1019.0 |
| 20260507031730 | 56 | 0 | 3.0 | 0.0 | 0.00 | 0.00 | 0.00 | 74 | 1018.0 |
| 20260507030229 | 56 | 360 | 1.0 | 5.0 | 0.00 | 0.00 | 0.00 | 72 | 1017.0 |
| 20260507024729 | 57 | 360 | 1.0 | 4.0 | 0.00 | 0.00 | 0.00 | 71 | 1017.0 |
| 20260507023229 | 57 | 360 | 1.0 | 4.0 | 0.00 | 0.00 | 0.00 | 70 | 1017.0 |
| 20260507021729 | 57 | 360 | 1.0 | 2.0 | 0.00 | 0.00 | 0.00 | 70 | 1018.0 |
| 20260507020228 | 56 | 165 | 5.0 | 5.0 | 0.00 | 0.00 | 0.00 | 69 | 1017.0 |
| 20260507014728 | 56 | 0 | 2.0 | 0.0 | 0.00 | 0.00 | 0.00 | 69 | 1017.0 |